When you browse on this site, cookies collect data to enhance your experience and personalize the content and advertising you see.
Visit our Privacy Policy to learn more. By continuing to use the site, you agree to this use of cookies and data.
  • En España
  • Lista de países
  • Para 7 días
  • Temperatura del agua
  • El tiempo en el mapa
  • Informadores
  • user-avatar
    Iniciar sesión

    Tiempo cada hora Gnezdovo

    Hoy, 5 Junio, Viernes

    Tiempo Temperatura Precipitaciones Viento Presión Humedad
    00:00 +8°C° 0 mm 3 mps 736 mmHg 94%
    01:00 +8°C° 0 mm 2 mps 736 mmHg 95%
    02:00 +7°C° 0 mm 3 mps 736 mmHg 96%
    03:00 +8°C° 0 mm 3 mps 736 mmHg 96%
    04:00 +8°C° 0 mm 2 mps 736 mmHg 96%
    05:00 +8°C° 0 mm 2 mps 736 mmHg 95%
    06:00 +9°C° 0 mm 3 mps 736 mmHg 92%
    07:00 +11°C° 0 mm 3 mps 736 mmHg 89%
    08:00 +12°C° 0 mm 3 mps 737 mmHg 86%
    09:00 +13°C° 0.5 mm 3 mps 737 mmHg 83%
    10:00 +14°C° 0.5 mm 3 mps 737 mmHg 80%
    11:00 +16°C° 0.5 mm 3 mps 736 mmHg 77%
    12:00 +17°C° 0.2 mm 3 mps 737 mmHg 74%
    13:00 +17°C° 0.2 mm 3 mps 737 mmHg 71%
    14:00 +18°C° 0.2 mm 3 mps 737 mmHg 68%
    15:00 +18°C° 0 mm 2 mps 737 mmHg 68%
    16:00 +18°C° 0 mm 2 mps 737 mmHg 68%
    17:00 +18°C° 0 mm 2 mps 737 mmHg 67%
    18:00 +17°C° 0 mm 2 mps 737 mmHg 74%
    19:00 +15°C° 0 mm 2 mps 738 mmHg 80%
    20:00 +14°C° 0 mm 2 mps 738 mmHg 86%
    21:00 +13°C° 0 mm 2 mps 738 mmHg 88%
    22:00 +12°C° 0 mm 2 mps 738 mmHg 90%
    23:00 +10°C° 0 mm 3 mps 739 mmHg 92%

    Mañana, 6 Junio, Sábado

    Tiempo Temperatura Precipitaciones Viento Presión Humedad
    00:00 +10°C° 0 mm 3 mps 739 mmHg 93%
    01:00 +11°C° 0 mm 3 mps 739 mmHg 95%
    02:00 +11°C° 0 mm 3 mps 739 mmHg 96%
    03:00 +11°C° 0 mm 3 mps 739 mmHg 96%
    04:00 +12°C° 0 mm 3 mps 739 mmHg 96%
    05:00 +13°C° 0 mm 3 mps 739 mmHg 96%
    06:00 +15°C° 0 mm 4 mps 739 mmHg 92%
    07:00 +17°C° 0 mm 4 mps 739 mmHg 89%
    08:00 +19°C° 0 mm 4 mps 739 mmHg 85%
    09:00 +20°C° 0.3 mm 5 mps 739 mmHg 84%
    10:00 +20°C° 0.3 mm 5 mps 740 mmHg 83%
    11:00 +21°C° 0.3 mm 5 mps 740 mmHg 82%
    12:00 +22°C° 0.9 mm 5 mps 740 mmHg 83%
    13:00 +22°C° 0.9 mm 5 mps 740 mmHg 84%
    14:00 +22°C° 0.9 mm 5 mps 740 mmHg 84%
    15:00 +22°C° 0.9 mm 4 mps 740 mmHg 85%
    16:00 +22°C° 0.9 mm 4 mps 740 mmHg 85%
    17:00 +22°C° 0.9 mm 4 mps 740 mmHg 86%
    18:00 +21°C° 0.3 mm 3 mps 741 mmHg 88%
    19:00 +20°C° 0.3 mm 3 mps 741 mmHg 90%
    20:00 +19°C° 0.3 mm 2 mps 742 mmHg 93%
    21:00 +18°C° 0 mm 2 mps 742 mmHg 93%
    22:00 +17°C° 0 mm 2 mps 743 mmHg 93%
    23:00 +16°C° 0 mm 2 mps 743 mmHg 93%

    Pasado mañana, 7 Junio, Domingo

    Tiempo Temperatura Precipitaciones Viento Presión Humedad
    00:00 +15°C° 0 mm 2 mps 744 mmHg 93%
    01:00 +14°C° 0 mm 1 mps 744 mmHg 93%
    02:00 +14°C° 0 mm 1 mps 744 mmHg 92%
    03:00 +14°C° 0 mm 1 mps 745 mmHg 92%
    04:00 +14°C° 0 mm 1 mps 745 mmHg 91%
    05:00 +14°C° 0 mm 1 mps 745 mmHg 90%
    06:00 +16°C° 0 mm 1 mps 746 mmHg 85%
    07:00 +19°C° 0 mm 1 mps 746 mmHg 79%
    08:00 +21°C° 0 mm 1 mps 746 mmHg 74%
    09:00 +22°C° 0 mm 1 mps 746 mmHg 70%
    10:00 +23°C° 0 mm 2 mps 746 mmHg 66%
    11:00 +24°C° 0 mm 2 mps 747 mmHg 62%
    12:00 +25°C° 0 mm 2 mps 746 mmHg 61%
    13:00 +26°C° 0 mm 2 mps 746 mmHg 61%
    14:00 +26°C° 0 mm 2 mps 746 mmHg 61%
    15:00 +26°C° 0 mm 2 mps 746 mmHg 64%
    16:00 +26°C° 0 mm 2 mps 746 mmHg 68%
    17:00 +26°C° 0 mm 2 mps 745 mmHg 72%
    18:00 +24°C° 0 mm 2 mps 745 mmHg 76%
    19:00 +23°C° 0 mm 2 mps 745 mmHg 81%
    20:00 +20°C° 0 mm 2 mps 745 mmHg 85%
    21:00 +20°C° 0 mm 2 mps 745 mmHg 88%
    22:00 +19°C° 0 mm 2 mps 745 mmHg 91%
    23:00 +18°C° 0 mm 2 mps 745 mmHg 93%

    8 Junio, Lunes

    Tiempo Temperatura Precipitaciones Viento Presión Humedad
    00:00 +18°C° 0 mm 2 mps 746 mmHg 94%
    01:00 +18°C° 0 mm 2 mps 746 mmHg 94%
    02:00 +18°C° 0 mm 2 mps 746 mmHg 95%
    03:00 +18°C° 0 mm 2 mps 746 mmHg 95%
    04:00 +18°C° 0 mm 2 mps 746 mmHg 94%
    05:00 +18°C° 0 mm 2 mps 746 mmHg 94%
    06:00 +20°C° 0 mm 2 mps 746 mmHg 90%
    07:00 +21°C° 0 mm 2 mps 746 mmHg 85%
    08:00 +24°C° 0 mm 2 mps 746 mmHg 81%
    09:00 +25°C° 0.3 mm 2 mps 746 mmHg 79%
    10:00 +25°C° 0.3 mm 2 mps 746 mmHg 77%
    11:00 +26°C° 0.3 mm 2 mps 746 mmHg 75%
    12:00 +26°C° 1.2 mm 2 mps 746 mmHg 75%
    13:00 +27°C° 1.2 mm 1 mps 746 mmHg 74%
    14:00 +27°C° 1.2 mm 1 mps 745 mmHg 74%
    15:00 +27°C° 0.8 mm 1 mps 745 mmHg 74%
    16:00 +27°C° 0.8 mm 1 mps 745 mmHg 74%
    17:00 +25°C° 0.8 mm 0 mps 745 mmHg 74%
    18:00 +25°C° 0.2 mm 1 mps 745 mmHg 78%
    19:00 +24°C° 0.2 mm 1 mps 745 mmHg 83%
    20:00 +22°C° 0.2 mm 1 mps 745 mmHg 87%
    21:00 +22°C° 0 mm 1 mps 745 mmHg 89%
    22:00 +21°C° 0 mm 1 mps 745 mmHg 90%
    23:00 +20°C° 0 mm 1 mps 745 mmHg 92%

    9 Junio, Martes

    Tiempo Temperatura Precipitaciones Viento Presión Humedad
    00:00 +20°C° 0 mm 1 mps 745 mmHg 92%
    01:00 +20°C° 0 mm 1 mps 745 mmHg 92%
    02:00 +19°C° 0 mm 1 mps 745 mmHg 92%
    03:00 +20°C° 0 mm 1 mps 745 mmHg 92%
    04:00 +20°C° 0 mm 1 mps 746 mmHg 92%
    05:00 +20°C° 0 mm 1 mps 746 mmHg 92%
    06:00 +21°C° 0 mm 1 mps 746 mmHg 89%
    07:00 +23°C° 0 mm 1 mps 746 mmHg 85%
    08:00 +24°C° 0 mm 2 mps 746 mmHg 82%
    09:00 +25°C° 0.1 mm 2 mps 746 mmHg 79%
    10:00 +26°C° 0.1 mm 2 mps 746 mmHg 77%
    11:00 +26°C° 0.1 mm 3 mps 746 mmHg 74%
    12:00 +26°C° 0.6 mm 3 mps 746 mmHg 76%
    13:00 +26°C° 0.6 mm 3 mps 746 mmHg 77%
    14:00 +26°C° 0.6 mm 4 mps 746 mmHg 78%
    15:00 +26°C° 0.7 mm 3 mps 746 mmHg 80%
    16:00 +26°C° 0.7 mm 3 mps 746 mmHg 82%
    17:00 +25°C° 0.7 mm 3 mps 745 mmHg 84%
    18:00 +24°C° 0.1 mm 3 mps 746 mmHg 87%
    19:00 +22°C° 0.1 mm 3 mps 746 mmHg 89%
    20:00 +21°C° 0.1 mm 2 mps 746 mmHg 91%
    21:00 +20°C° 0.1 mm 3 mps 746 mmHg 92%
    22:00 +20°C° 0.1 mm 3 mps 746 mmHg 93%
    23:00 +19°C° 0.1 mm 3 mps 746 mmHg 94%

    10 Junio, Miércoles

    Tiempo Temperatura Precipitaciones Viento Presión Humedad
    00:00 +18°C° 0 mm 3 mps 746 mmHg 95%
    01:00 +18°C° 0 mm 3 mps 746 mmHg 96%
    02:00 +17°C° 0 mm 2 mps 746 mmHg 96%
    03:00 +17°C° 0 mm 2 mps 746 mmHg 96%
    04:00 +17°C° 0 mm 2 mps 746 mmHg 96%
    05:00 +17°C° 0 mm 3 mps 746 mmHg 96%
    06:00 +18°C° 0 mm 3 mps 746 mmHg 93%
    07:00 +20°C° 0 mm 3 mps 746 mmHg 89%
    08:00 +21°C° 0 mm 3 mps 746 mmHg 85%
    09:00 +22°C° 0 mm 3 mps 746 mmHg 80%
    10:00 +24°C° 0 mm 3 mps 746 mmHg 74%
    11:00 +25°C° 0 mm 3 mps 746 mmHg 69%
    12:00 +26°C° 0 mm 3 mps 746 mmHg 67%
    13:00 +26°C° 0 mm 2 mps 746 mmHg 66%
    14:00 +27°C° 0 mm 2 mps 745 mmHg 64%
    15:00 +26°C° 0.1 mm 2 mps 745 mmHg 66%
    16:00 +26°C° 0.1 mm 2 mps 745 mmHg 69%
    17:00 +26°C° 0.1 mm 2 mps 745 mmHg 71%
    18:00 +24°C° 0.1 mm 2 mps 745 mmHg 77%
    19:00 +23°C° 0.1 mm 2 mps 745 mmHg 83%
    20:00 +20°C° 0.1 mm 2 mps 745 mmHg 89%
    21:00 +20°C° 0 mm 1 mps 745 mmHg 90%
    22:00 +20°C° 0 mm 1 mps 745 mmHg 92%
    23:00 +19°C° 0 mm 1 mps 745 mmHg 93%
    Mostrar más